• In Schweiz
  • Länderverzeichnis
  • Für 7 Tage
  • Wassertemperatur
  • Satellitenkarten
  • Wetterkarte
  • Widgets
  • user-avatar
    Anmelden

    Stündliche Wetter Serdyuky

    Heute, 18 Juli, Mittwoch

    Zeit Temperatur Niederschläge Wind Luftdruck Luftfeuchtigkeit
    00:00 +19°C° 0 mm 1 m/S 735 mmHg 92%
    01:00 +19°C° 0 mm 1 m/S 734 mmHg 93%
    02:00 +19°C° 0 mm 1 m/S 734 mmHg 94%
    03:00 +19°C° 0 mm 1 m/S 734 mmHg 95%
    04:00 +19°C° 0 mm 1 m/S 734 mmHg 95%
    05:00 +19°C° 0 mm 1 m/S 734 mmHg 96%
    06:00 +20°C° 0,1 mm 1 m/S 734 mmHg 94%
    07:00 +21°C° 0,1 mm 1 m/S 734 mmHg 92%
    08:00 +21°C° 0,1 mm 2 m/S 734 mmHg 90%
    09:00 +23°C° 0,1 mm 2 m/S 734 mmHg 88%
    10:00 +23°C° 0,1 mm 2 m/S 735 mmHg 86%
    11:00 +24°C° 0,1 mm 2 m/S 735 mmHg 84%
    12:00 +25°C° 0,3 mm 2 m/S 735 mmHg 80%
    13:00 +26°C° 0,3 mm 2 m/S 735 mmHg 76%
    14:00 +27°C° 0,3 mm 2 m/S 734 mmHg 72%
    15:00 +27°C° 1,1 mm 2 m/S 734 mmHg 74%
    16:00 +27°C° 1,1 mm 2 m/S 735 mmHg 76%
    17:00 +27°C° 1,1 mm 2 m/S 735 mmHg 78%
    18:00 +26°C° 0,4 mm 2 m/S 735 mmHg 83%
    19:00 +24°C° 0,4 mm 2 m/S 735 mmHg 88%
    20:00 +23°C° 0,4 mm 2 m/S 735 mmHg 93%
    21:00 +23°C° 0,1 mm 2 m/S 735 mmHg 94%
    22:00 +21°C° 0,1 mm 2 m/S 735 mmHg 96%
    23:00 +20°C° 0,1 mm 2 m/S 735 mmHg 97%

    Morgen, 19 Juli, Donnerstag

    Zeit Temperatur Niederschläge Wind Luftdruck Luftfeuchtigkeit
    00:00 +20°C° 0 mm 2 m/S 735 mmHg 96%
    01:00 +19°C° 0 mm 2 m/S 735 mmHg 96%
    02:00 +20°C° 0 mm 1 m/S 735 mmHg 96%
    03:00 +19°C° 0 mm 2 m/S 735 mmHg 96%
    04:00 +19°C° 0 mm 2 m/S 735 mmHg 97%
    05:00 +18°C° 0 mm 2 m/S 735 mmHg 97%
    06:00 +19°C° 0 mm 2 m/S 736 mmHg 94%
    07:00 +21°C° 0 mm 2 m/S 736 mmHg 91%
    08:00 +22°C° 0 mm 3 m/S 736 mmHg 88%
    09:00 +24°C° 0,5 mm 3 m/S 736 mmHg 84%
    10:00 +25°C° 0,5 mm 3 m/S 736 mmHg 81%
    11:00 +26°C° 0,5 mm 3 m/S 736 mmHg 77%
    12:00 +26°C° 0,6 mm 3 m/S 736 mmHg 73%
    13:00 +27°C° 0,6 mm 3 m/S 736 mmHg 70%
    14:00 +28°C° 0,6 mm 3 m/S 736 mmHg 66%
    15:00 +27°C° 0,5 mm 3 m/S 736 mmHg 68%
    16:00 +27°C° 0,5 mm 3 m/S 736 mmHg 70%
    17:00 +26°C° 0,5 mm 4 m/S 736 mmHg 72%
    18:00 +25°C° 0,1 mm 3 m/S 736 mmHg 78%
    19:00 +24°C° 0,1 mm 3 m/S 736 mmHg 84%
    20:00 +21°C° 0,1 mm 2 m/S 736 mmHg 90%
    21:00 +20°C° 0 mm 2 m/S 736 mmHg 92%
    22:00 +20°C° 0 mm 2 m/S 736 mmHg 95%
    23:00 +19°C° 0 mm 2 m/S 737 mmHg 97%

    übermorgen, 20 Juli, Freitag

    Zeit Temperatur Niederschläge Wind Luftdruck Luftfeuchtigkeit
    00:00 +19°C° 0 mm 2 m/S 737 mmHg 97%
    01:00 +19°C° 0 mm 3 m/S 736 mmHg 98%
    02:00 +18°C° 0 mm 3 m/S 736 mmHg 98%
    03:00 +19°C° 0 mm 3 m/S 737 mmHg 98%
    04:00 +19°C° 0 mm 3 m/S 737 mmHg 97%
    05:00 +19°C° 0 mm 3 m/S 737 mmHg 97%
    06:00 +19°C° 0 mm 4 m/S 737 mmHg 95%
    07:00 +20°C° 0 mm 4 m/S 737 mmHg 93%
    08:00 +20°C° 0 mm 4 m/S 737 mmHg 91%
    09:00 +21°C° 0,2 mm 4 m/S 737 mmHg 88%
    10:00 +22°C° 0,2 mm 4 m/S 737 mmHg 84%
    11:00 +23°C° 0,2 mm 4 m/S 738 mmHg 80%
    12:00 +25°C° 0,7 mm 4 m/S 737 mmHg 79%
    13:00 +25°C° 0,7 mm 5 m/S 737 mmHg 77%
    14:00 +26°C° 0,7 mm 5 m/S 737 mmHg 76%
    15:00 +26°C° 0,5 mm 5 m/S 737 mmHg 76%
    16:00 +26°C° 0,5 mm 5 m/S 737 mmHg 75%
    17:00 +27°C° 0,5 mm 5 m/S 737 mmHg 75%
    18:00 +25°C° 0,8 mm 4 m/S 737 mmHg 79%
    19:00 +23°C° 0,8 mm 4 m/S 736 mmHg 84%
    20:00 +22°C° 0,8 mm 4 m/S 736 mmHg 89%
    21:00 +21°C° 0,6 mm 4 m/S 736 mmHg 90%
    22:00 +21°C° 0,6 mm 4 m/S 736 mmHg 92%
    23:00 +20°C° 0,6 mm 4 m/S 736 mmHg 93%

    21 Juli, Samstag

    Zeit Temperatur Niederschläge Wind Luftdruck Luftfeuchtigkeit
    00:00 +20°C° 0 mm 4 m/S 736 mmHg 94%
    01:00 +20°C° 0 mm 4 m/S 736 mmHg 96%
    02:00 +20°C° 0 mm 4 m/S 736 mmHg 97%
    03:00 +20°C° 0 mm 4 m/S 737 mmHg 96%
    04:00 +20°C° 0 mm 4 m/S 737 mmHg 96%
    05:00 +20°C° 0 mm 4 m/S 737 mmHg 95%
    06:00 +20°C° 0,1 mm 4 m/S 737 mmHg 94%
    07:00 +20°C° 0,1 mm 4 m/S 737 mmHg 93%
    08:00 +20°C° 0,1 mm 4 m/S 737 mmHg 92%
    09:00 +20°C° 0 mm 4 m/S 737 mmHg 90%
    10:00 +21°C° 0 mm 4 m/S 737 mmHg 88%
    11:00 +22°C° 0 mm 4 m/S 738 mmHg 85%
    12:00 +23°C° 0,2 mm 4 m/S 737 mmHg 82%
    13:00 +25°C° 0,2 mm 4 m/S 737 mmHg 78%
    14:00 +26°C° 0,2 mm 5 m/S 737 mmHg 74%
    15:00 +26°C° 0,3 mm 4 m/S 737 mmHg 73%
    16:00 +26°C° 0,3 mm 4 m/S 737 mmHg 73%
    17:00 +26°C° 0,3 mm 4 m/S 737 mmHg 72%
    18:00 +25°C° 0 mm 3 m/S 737 mmHg 78%
    19:00 +24°C° 0 mm 3 m/S 737 mmHg 83%
    20:00 +23°C° 0 mm 2 m/S 737 mmHg 88%
    21:00 +21°C° 0 mm 2 m/S 737 mmHg 91%
    22:00 +20°C° 0 mm 2 m/S 737 mmHg 93%
    23:00 +20°C° 0 mm 3 m/S 737 mmHg 96%

    22 Juli, Sonntag

    Zeit Temperatur Niederschläge Wind Luftdruck Luftfeuchtigkeit
    00:00 +19°C° 0 mm 3 m/S 737 mmHg 96%
    01:00 +19°C° 0 mm 3 m/S 737 mmHg 97%
    02:00 +19°C° 0 mm 3 m/S 737 mmHg 97%
    03:00 +19°C° 0 mm 3 m/S 737 mmHg 98%
    04:00 +19°C° 0 mm 3 m/S 737 mmHg 98%
    05:00 +19°C° 0 mm 3 m/S 737 mmHg 98%
    06:00 +19°C° 0 mm 3 m/S 737 mmHg 96%
    07:00 +20°C° 0 mm 3 m/S 738 mmHg 93%
    08:00 +20°C° 0 mm 4 m/S 738 mmHg 91%
    09:00 +21°C° 0 mm 4 m/S 738 mmHg 86%
    10:00 +22°C° 0 mm 4 m/S 738 mmHg 81%
    11:00 +23°C° 0 mm 4 m/S 738 mmHg 76%
    12:00 +26°C° 0 mm 4 m/S 738 mmHg 70%
    13:00 +27°C° 0 mm 4 m/S 738 mmHg 65%
    14:00 +28°C° 0 mm 4 m/S 738 mmHg 60%
    15:00 +28°C° 0 mm 4 m/S 738 mmHg 60%
    16:00 +28°C° 0 mm 4 m/S 738 mmHg 61%
    17:00 +28°C° 0 mm 4 m/S 738 mmHg 61%
    18:00 +26°C° 0 mm 3 m/S 738 mmHg 68%
    19:00 +24°C° 0 mm 3 m/S 738 mmHg 74%
    20:00 +23°C° 0 mm 2 m/S 738 mmHg 81%
    21:00 +21°C° 0 mm 2 m/S 739 mmHg 84%
    22:00 +20°C° 0 mm 2 m/S 739 mmHg 86%
    23:00 +19°C° 0 mm 2 m/S 739 mmHg 89%

    23 Juli, Montag

    Zeit Temperatur Niederschläge Wind Luftdruck Luftfeuchtigkeit
    00:00 +19°C° 0 mm 2 m/S 739 mmHg 89%
    01:00 +18°C° 0 mm 2 m/S 739 mmHg 90%
    02:00 +18°C° 0 mm 3 m/S 739 mmHg 91%
    03:00 +17°C° 0 mm 3 m/S 740 mmHg 92%
    04:00 +17°C° 0 mm 3 m/S 740 mmHg 94%
    05:00 +16°C° 0 mm 3 m/S 740 mmHg 95%
    06:00 +17°C° 0 mm 3 m/S 741 mmHg 89%
    07:00 +19°C° 0 mm 3 m/S 741 mmHg 83%
    08:00 +20°C° 0 mm 3 m/S 741 mmHg 77%
    09:00 +21°C° 0 mm 4 m/S 741 mmHg 71%
    10:00 +23°C° 0 mm 4 m/S 741 mmHg 65%
    11:00 +26°C° 0 mm 4 m/S 741 mmHg 58%
    12:00 +26°C° 0 mm 4 m/S 741 mmHg 55%
    13:00 +27°C° 0 mm 4 m/S 741 mmHg 51%
    14:00 +27°C° 0 mm 4 m/S 741 mmHg 48%
    15:00 +27°C° 0 mm 4 m/S 741 mmHg 49%
    16:00 +27°C° 0 mm 4 m/S 741 mmHg 50%
    17:00 +27°C° 0 mm 4 m/S 741 mmHg 51%
    18:00 +25°C° 0 mm 3 m/S 741 mmHg 58%
    19:00 +22°C° 0 mm 3 m/S 742 mmHg 65%
    20:00 +20°C° 0 mm 2 m/S 742 mmHg 72%
    21:00 +19°C° 0 mm 2 m/S 742 mmHg 75%
    22:00 +18°C° 0 mm 2 m/S 742 mmHg 78%
    23:00 +17°C° 0 mm 2 m/S 743 mmHg 80%
    Mehr zeigen